This demonstration page uses our WeatherBlox Daily Observations layout. Learn more.

Left ArrowRight Arrow

39.29038, -76.61219

Hourly Observations for December 20, 2020

Temp ( °F °C ) Dew Point ( °F °C ) Humidity (%) Winds ( mph kmh ) Pressure ( in mb ) Visibility ( mi km ) Precip ( " mm )
12:54 am 00:54 Cloudy 33 0.6 26 -3.3 75 75 Calm 30.24 1024 10 16 0.00 0.00
1:54 am 01:54 Cloudy 33 0.6 27 -2.8 78 78 Calm 30.24 1024 10 16 0.00 0.00
2:54 am 02:54 Cloudy 33 0.6 27 -2.8 78 78 Calm 30.21 1023 10 16 0.00 0.00
3:54 am 03:54 Cloudy 33 0.6 28 -2.2 82 82 Calm 30.19 1023 10 16 0.00 0.00
4:54 am 04:54 Cloudy 33 0.6 28 -2.2 82 82 Calm 30.19 1022 10 16 0.00 0.00
5:54 am 05:54 Cloudy 33 0.6 28 -2.2 82 82 Calm 30.19 1022 10 16 0.00 0.00
6:54 am 06:54 Cloudy 35 1.7 29 -1.7 78 78 Calm 30.19 1022 10 16 0.00 0.00
7:54 am 07:54 Cloudy 36 2.2 30 -1.1 79 79 VRB 3 6 30.16 1022 10 16 0.00 0.00
8:54 am 08:54 Cloudy 37 2.8 31 -0.6 79 79 SSE 8 13 30.15 1021 10 16 0.00 0.00
9:54 am 09:54 Mostly Cloudy 39 3.9 32 0 76 76 WSW 3 6 30.14 1021 10 16 0.00 0.00
10:54 am 10:54 Mostly Cloudy 41 5 33 0.6 73 73 VRB 6 9 30.12 1020 9 14 0.00 0.00
11:54 am 11:54 Mostly Cloudy 45 7.2 34 1.1 66 66 undefined N/A 30.08 1019 10 16 0.00 0.00
12:54 pm 12:54 Mostly Cloudy 45 7.2 33 0.6 63 63 SSW 6 9 30.05 1018 10 16 0.00 0.00
1:08 pm 13:08 Mostly Cloudy 44 6.7 33 0.6 65 65 SW 9 15 30.05 1017 10 16 0.00 0.00
1:54 pm 13:54 Cloudy 44 6.7 34 1.1 68 68 S 5 7 30.04 1017 10 16 0.00 0.00
2:54 pm 14:54 Cloudy 44 6.7 34 1.1 68 68 SSW 5 7 30.02 1017 10 16 0.00 0.00
3:32 pm 15:32 Mostly Cloudy 44 6.7 35 1.7 71 71 SSW 3 6 30.03 1017 10 16 0.00 0.00
3:54 pm 15:54 Mostly Cloudy 44 6.7 35 1.7 71 71 VRB 3 6 30.02 1017 10 16 0.00 0.00
4:54 pm 16:54 Partly Cloudy 42 5.6 34 1.1 73 73 Calm 30.02 1017 10 16 0.00 0.00
5:38 pm 17:38 Mostly Cloudy 42 5.6 34 1.1 73 73 Calm 30.03 1017 10 16 0.00 0.00
5:54 pm 17:54 Mostly Cloudy 41 5 34 1.1 76 76 SSE 3 6 30.01 1016 10 16 0.00 0.00
6:54 pm 18:54 Mostly Cloudy 42 5.6 35 1.7 76 76 S 5 7 30.00 1016 10 16 0.00 0.00
7:11 pm 19:11 Mostly Clear 40 4.4 34 1.1 79 79 SSE 5 7 30.01 1016 10 16 0.00 0.00
7:54 pm 19:54 Mostly Clear 34 1.1 30 -1.1 85 85 Calm 30.00 1016 10 16 0.00 0.00
8:40 pm 20:40 Mostly Cloudy 35 1.7 32 0 89 89 WNW 3 6 30.00 1016 8 13 0.00 0.00
8:54 pm 20:54 Cloudy 35 1.7 33 0.6 93 93 Calm 29.99 1016 7 11 0.00 0.00
9:54 pm 21:54 Cloudy 35 1.7 32 0 89 89 Calm 29.98 1015 9 14 0.00 0.00
10:16 pm 22:16 Cloudy 36 2.2 33 0.6 89 89 Calm 29.99 1016 9 14 0.00 0.00
10:54 pm 22:54 Cloudy 37 2.8 34 1.1 89 89 Calm 29.97 1015 9 14 0.00 0.00
11:54 pm 23:54 Cloudy 37 2.8 33 0.6 86 86 Calm 29.95 1014 9 14 0.00 0.00

Powered by AerisWeather